FW4770 Weather Reports


Display with metric or nautical units.
time (UTC)temp
F
wind
direction
speed
MPH
gust
MPH
rain 1hr
in
rain 24hr
in
rain mn
in
humidity
%
barometer
mb
20210727225325 91 86 5.0 8.0 0.00 0.00 0.00 61 1015.1
20210727224814 91 67 6.0 11.0 0.00 0.00 0.00 60 1015.1
20210727224312 91 132 7.0 11.0 0.00 0.00 0.00 60 1015.1
20210727223815 91 91 4.0 6.0 0.00 0.00 0.00 60 1015.1
20210727223319 91 138 3.0 8.0 0.00 0.00 0.00 60 1015.1
20210727222823 91 109 5.0 10.0 0.00 0.00 0.00 60 1015.2
20210727222328 91 92 6.0 10.0 0.00 0.00 0.00 59 1015.2
20210727221823 91 124 6.0 9.0 0.00 0.00 0.00 59 1015.2
20210727221328 91 176 5.0 9.0 0.00 0.00 0.00 59 1015.1
20210727220812 91 150 7.0 11.0 0.00 0.00 0.00 58 1015.1
20210727220317 92 88 8.0 11.0 0.00 0.00 0.00 58 1015.0
20210727215812 91 109 7.0 12.0 0.00 0.00 0.00 59 1015.1
20210727215315 91 159 6.0 12.0 0.00 0.00 0.00 59 1015.1
20210727214821 91 92 6.0 9.0 0.00 0.00 0.00 59 1015.1
20210727214326 91 136 6.0 12.0 0.00 0.00 0.00 58 1015.1
20210727213831 91 121 7.0 12.0 0.00 0.00 0.00 59 1015.3
20210727213324 91 144 3.0 10.0 0.00 0.00 0.00 58 1015.2
20210727212827 91 84 5.0 10.0 0.00 0.00 0.00 58 1015.3
20210727212331 91 245 4.0 11.0 0.00 0.00 0.00 60 1015.3
20210727211835 91 149 6.0 11.0 0.00 0.00 0.00 59 1015.3
20210727211338 91 194 4.0 7.0 0.00 0.00 0.00 59 1015.4
20210727210813 90 277 3.0 10.0 0.00 0.00 0.00 59 1015.4
20210727210318 90 192 4.0 10.0 0.00 0.00 0.00 60 1015.5
20210727205822 91 194 6.0 9.0 0.00 0.00 0.00 59 1015.4
20210727205327 91 192 4.0 8.0 0.00 0.00 0.00 59 1015.6
20210727204825 91 201 5.0 8.0 0.00 0.00 0.00 60 1015.5
20210727204329 90 200 4.0 8.0 0.00 0.00 0.00 62 1015.6
20210727203834 90 66 3.0 8.0 0.00 0.00 0.00 59 1015.6
20210727203312 90 103 4.0 10.0 0.00 0.00 0.00 59 1015.6
20210727202816 90 136 4.0 12.0 0.00 0.00 0.00 60 1015.6
20210727202315 90 144 10.0 12.0 0.00 0.00 0.00 59 1015.6
20210727201819 90 219 4.0 8.0 0.00 0.00 0.00 61 1015.6
20210727201324 90 245 3.0 10.0 0.00 0.00 0.00 61 1015.6
20210727200823 90 188 4.0 11.0 0.00 0.00 0.00 60 1015.6
20210727200328 90 158 6.0 10.0 0.00 0.00 0.00 61 1015.4
20210727195830 89 103 5.0 12.0 0.00 0.00 0.00 61 1015.5
20210727195315 89 153 5.0 10.0 0.00 0.00 0.00 60 1015.5
20210727194813 90 117 7.0 11.0 0.00 0.00 0.00 59 1015.4
20210727194318 90 130 8.0 12.0 0.00 0.00 0.00 59 1015.4
20210727193823 89 126 9.0 12.0 0.00 0.00 0.00 60 1015.4
20210727193329 89 119 9.0 11.0 0.00 0.00 0.00 60 1015.5
20210727192833 89 156 7.0 12.0 0.00 0.00 0.00 60 1015.4
20210727192337 89 134 4.0 12.0 0.00 0.00 0.00 60 1015.5
20210727191817 89 150 5.0 13.0 0.00 0.00 0.00 60 1015.4
20210727191317 89 113 8.0 13.0 0.00 0.00 0.00 60 1015.5
20210727190819 89 152 6.0 13.0 0.00 0.00 0.00 61 1015.5
20210727190323 89 109 8.0 13.0 0.00 0.00 0.00 61 1015.5
20210727185820 88 111 6.0 13.0 0.00 0.00 0.00 62 1015.4
20210727185325 88 100 9.0 14.0 0.00 0.00 0.00 61 1015.4
20210727184830 88 113 9.0 15.0 0.00 0.00 0.00 61 1015.4
20210727184335 88 132 9.0 16.0 0.00 0.00 0.00 62 1015.4
20210727183837 88 106 10.0 16.0 0.00 0.00 0.00 61 1015.4
20210727183315 88 99 9.0 13.0 0.00 0.00 0.00 61 1015.5
20210727182819 88 138 9.0 13.0 0.00 0.00 0.00 61 1015.5
20210727182324 88 146 8.0 12.0 0.00 0.00 0.00 61 1015.5
20210727181824 88 70 7.0 12.0 0.00 0.00 0.00 61 1015.4
20210727181326 88 91 8.0 13.0 0.00 0.00 0.00 60 1015.5
20210727180832 88 117 7.0 13.0 0.00 0.00 0.00 61 1015.4
20210727180332 88 135 8.0 12.0 0.00 0.00 0.00 61 1015.5
20210727175827 87 71 8.0 13.0 0.00 0.00 0.00 61 1015.6
20210727175330 87 54 7.0 13.0 0.00 0.00 0.00 61 1015.7
20210727174814 87 66 7.0 12.0 0.00 0.00 0.00 62 1015.7
20210727174319 87 98 6.0 13.0 0.00 0.00 0.00 63 1015.6
20210727173834 87 134 10.0 13.0 0.00 0.00 0.00 62 1015.6
20210727173336 86 145 6.0 11.0 0.00 0.00 0.00 62 1015.6
20210727172811 86 159 7.0 11.0 0.00 0.00 0.00 64 1015.6
20210727172315 86 136 7.0 11.0 0.00 0.00 0.00 64 1015.7
20210727171820 86 128 7.0 12.0 0.00 0.00 0.00 65 1015.8
20210727171324 86 123 7.0 12.0 0.00 0.00 0.00 63 1015.7
20210727170821 86 145 7.0 10.0 0.00 0.00 0.00 65 1015.7
20210727170323 86 125 7.0 11.0 0.00 0.00 0.00 64 1015.8
20210727165819 85 112 7.0 11.0 0.00 0.00 0.00 65 1015.6
20210727165320 85 184 5.0 11.0 0.00 0.00 0.00 65 1015.6
20210727164817 85 116 8.0 11.0 0.00 0.00 0.00 66 1015.6
20210727164320 85 117 5.0 11.0 0.00 0.00 0.00 67 1015.6
20210727163822 84 94 9.0 11.0 0.00 0.00 0.00 67 1015.5
20210727163326 84 78 6.0 10.0 0.00 0.00 0.00 66 1015.4
20210727162830 85 83 6.0 12.0 0.00 0.00 0.00 66 1015.4
20210727162334 84 82 9.0 12.0 0.00 0.00 0.00 66 1015.4
20210727161830 84 52 6.0 13.0 0.00 0.00 0.00 67 1015.5
20210727161313 84 53 8.0 13.0 0.00 0.00 0.00 67 1015.4
20210727160819 84 80 6.0 11.0 0.00 0.00 0.00 66 1015.4
20210727160320 84 82 7.0 11.0 0.00 0.00 0.00 68 1015.4
20210727155816 84 92 7.0 11.0 0.00 0.00 0.00 67 1015.5
20210727155321 84 92 7.0 10.0 0.00 0.00 0.00 68 1015.4
20210727154819 84 73 5.0 10.0 0.00 0.00 0.00 68 1015.4
20210727154322 83 122 5.0 11.0 0.00 0.00 0.00 68 1015.4
20210727153819 83 117 2.0 10.0 0.00 0.00 0.00 70 1015.3
20210727153321 83 164 7.0 10.0 0.00 0.00 0.00 69 1015.3
20210727152824 82 135 4.0 9.0 0.00 0.00 0.00 69 1015.3
20210727152330 82 115 6.0 9.0 0.00 0.00 0.00 69 1015.3
20210727151814 82 117 5.0 9.0 0.00 0.00 0.00 68 1015.4
20210727151335 82 216 3.0 9.0 0.00 0.00 0.00 69 1015.4
20210727150811 82 174 5.0 9.0 0.00 0.00 0.00 68 1015.4
20210727150314 81 107 3.0 6.0 0.00 0.00 0.00 70 1015.3
20210727145815 81 113 4.0 7.0 0.00 0.00 0.00 70 1015.3
20210727145319 81 82 3.0 7.0 0.00 0.00 0.00 70 1015.3
20210727144818 81 122 3.0 6.0 0.00 0.00 0.00 69 1015.3
20210727144321 80 107 3.0 6.0 0.00 0.00 0.00 70 1015.4
20210727143826 80 111 2.0 7.0 0.00 0.00 0.00 70 1015.3
20210727143331 80 121 3.0 7.0 0.00 0.00 0.00 71 1015.3
20210727142815 80 126 4.0 7.0 0.00 0.00 0.00 70 1015.3
20210727142312 80 117 2.0 7.0 0.00 0.00 0.00 70 1015.3
20210727141814 81 123 4.0 7.0 0.00 0.00 0.00 70 1015.2
20210727141317 81 94 3.0 6.0 0.00 0.00 0.00 70 1015.1
20210727140822 80 119 2.0 7.0 0.00 0.00 0.00 69 1015.2
20210727140320 80 126 3.0 7.0 0.00 0.00 0.00 69 1015.1
20210727135822 80 131 4.0 5.0 0.00 0.00 0.00 70 1015.3
20210727135330 80 138 3.0 5.0 0.00 0.00 0.00 70 1015.2
20210727134831 80 180 4.0 7.0 0.00 0.00 0.00 70 1015.1
20210727134336 79 124 4.0 7.0 0.00 0.00 0.00 72 1015.2
20210727133813 79 109 4.0 6.0 0.00 0.00 0.00 72 1015.1
20210727133317 79 157 4.0 6.0 0.00 0.00 0.00 72 1015.1
20210727132821 79 142 3.0 5.0 0.00 0.00 0.00 72 1015.0
20210727132321 79 128 3.0 6.0 0.00 0.00 0.00 73 1015.1
20210727131826 78 88 3.0 6.0 0.00 0.00 0.00 73 1015.1
20210727131312 78 135 3.0 4.0 0.00 0.00 0.00 74 1015.1
20210727130816 77 106 2.0 4.0 0.00 0.00 0.00 76 1015.1
20210727130315 77 117 2.0 4.0 0.00 0.00 0.00 76 1015.0
20210727125820 76 47 1.0 2.0 0.00 0.00 0.00 78 1015.0
20210727125322 76 47 0.0 3.0 0.00 0.00 0.00 77 1015.1
20210727124817 76 47 0.0 3.0 0.00 0.00 0.00 78 1015.0
20210727124324 76 47 2.0 2.0 0.00 0.00 0.00 77 1015.0
20210727123813 76 47 1.0 2.0 0.00 0.00 0.00 78 1015.0
20210727123311 76 46 1.0 2.0 0.00 0.00 0.00 77 1015.1
20210727122815 76 46 1.0 3.0 0.00 0.00 0.00 77 1015.0
20210727122321 76 47 2.0 3.0 0.00 0.00 0.00 78 1015.0
20210727121824 75 42 1.0 4.0 0.00 0.00 0.00 78 1014.9
20210727121331 75 24 0.0 4.0 0.00 0.00 0.00 78 1015.0
20210727120827 75 65 2.0 3.0 0.00 0.00 0.00 78 1014.9
20210727120329 75 29 1.0 2.0 0.00 0.00 0.00 78 1015.0
20210727115814 75 36 0.0 2.0 0.00 0.00 0.00 78 1015.1
20210727115315 75 36 0.0 2.0 0.00 0.00 0.00 77 1014.9
20210727114813 75 36 1.0 2.0 0.00 0.00 0.00 77 1014.8
20210727114315 75 36 1.0 2.0 0.00 0.00 0.00 77 1014.6
20210727113816 75 35 1.0 3.0 0.00 0.00 0.00 76 1014.7
20210727113319 75 34 2.0 4.0 0.00 0.00 0.00 76 1014.6
20210727112822 76 18 3.0 4.0 0.00 0.00 0.00 76 1014.6
20210727112327 76 343 3.0 5.0 0.00 0.00 0.00 75 1014.4
20210727111821 75 266 3.0 8.0 0.00 0.00 0.00 76 1014.3
20210727111326 76 270 4.0 8.0 0.00 0.00 0.00 76 1014.1
20210727110830 76 200 4.0 7.0 0.00 0.00 0.00 75 1013.9
20210727110336 76 229 4.0 7.0 0.00 0.00 0.00 75 1013.7
20210727105812 76 227 2.0 6.0 0.00 0.00 0.00 75 1013.6
20210727105317 76 198 4.0 7.0 0.00 0.00 0.00 75 1013.6
20210727104821 76 188 4.0 7.0 0.00 0.00 0.00 75 1013.8
20210727104318 76 185 3.0 5.0 0.00 0.00 0.00 75 1013.6
20210727103822 76 205 2.0 5.0 0.00 0.00 0.00 75 1013.7
20210727103330 76 175 2.0 6.0 0.00 0.00 0.00 75 1013.8
20210727102836 76 187 3.0 5.0 0.00 0.00 0.00 75 1013.5
20210727102314 76 213 3.0 5.0 0.00 0.00 0.00 75 1013.5
20210727101817 76 200 3.0 6.0 0.00 0.00 0.00 75 1013.7
20210727101321 76 195 3.0 6.0 0.00 0.00 0.00 75 1013.8
20210727100818 76 177 3.0 6.0 0.00 0.00 0.00 75 1013.8
20210727100321 76 212 3.0 6.0 0.00 0.00 0.00 74 1013.7
20210727095816 76 205 3.0 6.0 0.00 0.00 0.00 74 1013.7
20210727095320 76 202 4.0 7.0 0.00 0.00 0.00 74 1013.6
20210727094823 76 221 4.0 7.0 0.00 0.00 0.00 74 1013.7
20210727094328 76 223 4.0 8.0 0.00 0.00 0.00 74 1013.6
20210727093826 77 194 4.0 8.0 0.00 0.00 0.00 74 1013.6
20210727093329 77 250 3.0 9.0 0.00 0.00 0.00 74 1013.7
20210727092813 77 199 4.0 9.0 0.00 0.00 0.00 74 1013.4
20210727092318 77 219 4.0 8.0 0.00 0.00 0.00 74 1013.4
20210727091815 76 221 4.0 8.0 0.00 0.00 0.00 74 1013.3
20210727091318 77 196 3.0 7.0 0.00 0.00 0.00 74 1013.2
20210727090822 77 183 4.0 6.0 0.00 0.00 0.00 74 1013.2
20210727090326 77 211 4.0 9.0 0.00 0.00 0.00 73 1013.3
20210727085823 77 210 5.0 9.0 0.00 0.00 0.00 73 1013.4
20210727085325 77 218 4.0 7.0 0.00 0.00 0.00 73 1013.4
20210727084829 77 227 3.0 7.0 0.00 0.00 0.00 73 1013.4
20210727084312 77 214 5.0 8.0 0.00 0.00 0.00 73 1013.5
20210727083811 77 239 5.0 9.0 0.00 0.00 0.00 73 1013.5
20210727083314 77 223 5.0 9.0 0.00 0.00 0.00 73 1013.4
20210727082817 77 172 3.0 7.0 0.00 0.00 0.00 73 1013.4
20210727082322 77 211 3.0 11.0 0.00 0.00 0.00 73 1013.4
20210727081826 77 216 4.0 11.0 0.00 0.00 0.00 73 1013.4
20210727081323 77 228 4.0 10.0 0.00 0.00 0.00 73 1013.4
20210727080825 77 243 6.0 9.0 0.00 0.00 0.00 73 1013.5
20210727080329 77 234 4.0 9.0 0.00 0.00 0.00 73 1013.5
20210727075813 78 224 6.0 9.0 0.00 0.00 0.00 73 1013.6
20210727075334 78 219 5.0 9.0 0.00 0.00 0.00 73 1013.5
20210727074837 78 232 5.0 10.0 0.00 0.00 0.00 73 1013.5
20210727074314 78 222 5.0 10.0 0.00 0.00 0.00 72 1013.6
20210727073817 78 225 6.0 11.0 0.00 0.00 0.00 73 1013.7
20210727073317 78 222 6.0 11.0 0.00 0.00 0.00 72 1013.7
20210727072818 78 217 6.0 11.0 0.00 0.00 0.00 72 1013.8
20210727072321 79 227 7.0 12.0 0.00 0.00 0.00 72 1013.8
20210727071818 79 180 5.0 14.0 0.00 0.00 0.00 73 1013.9
20210727071322 79 240 7.0 14.0 0.00 0.00 0.00 73 1013.8
20210727070825 79 236 6.0 12.0 0.00 0.00 0.00 73 1013.8
20210727070328 79 220 6.0 12.0 0.00 0.00 0.00 72 1013.8
20210727065825 79 244 8.0 12.0 0.00 0.00 0.00 72 1013.8
20210727065327 79 227 5.0 14.0 0.00 0.00 0.00 72 1014.0
20210727064831 79 185 7.0 14.0 0.00 0.00 0.00 72 1014.0
20210727064335 79 260 5.0 9.0 0.00 0.00 0.00 72 1013.8
20210727063827 80 222 4.0 12.0 0.00 0.00 0.00 72 1013.8
20210727063326 80 225 7.0 12.0 0.00 0.00 0.00 73 1014.0
20210727062830 80 220 7.0 15.0 0.00 0.00 0.00 73 1014.0
20210727062314 80 232 8.0 15.0 0.00 0.00 0.00 73 1014.0
20210727061817 80 194 6.0 9.0 0.00 0.00 0.00 73 1014.0
20210727061314 80 209 6.0 12.0 0.00 0.00 0.00 73 1014.0
20210727060817 80 242 5.0 12.0 0.00 0.00 0.00 73 1014.0
20210727060321 80 215 5.0 12.0 0.00 0.00 0.00 73 1014.0
20210727055823 80 211 5.0 10.0 0.00 0.00 0.00 73 1013.9
20210727055326 80 223 5.0 15.0 0.00 0.00 0.00 73 1013.9
20210727054822 80 192 7.0 14.0 0.00 0.00 0.00 73 1014.0
20210727054325 80 175 7.0 10.0 0.00 0.00 0.00 73 1014.0
20210727053827 80 183 5.0 9.0 0.00 0.00 0.00 74 1014.0
20210727053331 81 251 5.0 10.0 0.00 0.00 0.00 74 1014.1
20210727052813 81 209 6.0 12.0 0.00 0.00 0.00 74 1014.2
20210727052335 81 184 6.0 12.0 0.00 0.00 0.00 74 1014.1
20210727051812 81 209 4.0 9.0 0.00 0.00 0.00 74 1014.1
20210727051315 81 172 5.0 9.0 0.00 0.00 0.00 74 1014.1
20210727050818 81 194 5.0 9.0 0.00 0.00 0.00 74 1014.1
20210727050317 81 215 5.0 11.0 0.00 0.00 0.00 74 1014.2
20210727045818 81 226 6.0 11.0 0.00 0.00 0.00 74 1014.2
20210727045319 81 189 5.0 10.0 0.00 0.00 0.00 74 1014.3
20210727044822 81 188 6.0 10.0 0.00 0.00 0.00 74 1014.3
20210727044326 81 192 6.0 10.0 0.00 0.00 0.00 73 1014.2
20210727043812 81 189 6.0 10.0 0.00 0.00 0.00 73 1014.3
20210727043334 81 196 3.0 7.0 0.00 0.00 0.00 73 1014.3
20210727042811 81 166 4.0 9.0 0.00 0.00 0.00 73 1014.1
20210727042316 82 245 5.0 10.0 0.00 0.00 0.00 73 1014.1
20210727041822 82 188 6.0 10.0 0.00 0.00 0.00 73 1014.2
20210727041327 82 227 6.0 10.0 0.00 0.00 0.00 73 1014.1
20210727040831 82 182 6.0 10.0 0.00 0.00 0.00 73 1014.1
20210727040327 82 191 4.0 9.0 0.00 0.00 0.00 73 1014.1
20210727035811 82 211 7.0 11.0 0.00 0.00 0.00 73 1014.0
20210727035313 82 199 5.0 11.0 0.00 0.00 0.00 74 1014.0
20210727034818 82 220 6.0 12.0 0.00 0.00 0.00 74 1013.9
20210727034316 82 196 5.0 10.0 0.00 0.00 0.00 74 1014.0
20210727033818 82 205 5.0 10.0 0.00 0.00 0.00 74 1013.9
20210727033322 82 185 4.0 9.0 0.00 0.00 0.00 74 1013.9
20210727032828 82 225 4.0 9.0 0.00 0.00 0.00 73 1013.9
20210727032325 82 234 4.0 9.0 0.00 0.00 0.00 73 1013.9
20210727031828 82 219 4.0 9.0 0.00 0.00 0.00 73 1014.0
20210727031311 82 221 5.0 9.0 0.00 0.00 0.00 73 1013.9
20210727030816 82 163 5.0 8.0 0.00 0.00 0.00 73 1013.9
20210727030316 82 200 4.0 8.0 0.00 0.00 0.00 73 1013.9
20210727025820 82 176 6.0 8.0 0.00 0.00 0.00 73 1013.8
20210727025324 82 176 4.0 6.0 0.00 0.00 0.00 73 1013.8
20210727024830 82 184 3.0 6.0 0.00 0.00 0.00 72 1013.8
20210727024325 82 161 3.0 6.0 0.00 0.00 0.00 72 1013.8
20210727023830 82 166 3.0 5.0 0.00 0.00 0.00 72 1013.9
20210727023314 82 169 3.0 5.0 0.00 0.00 0.00 71 1013.9
20210727022819 82 186 2.0 4.0 0.00 0.00 0.00 71 1013.8
20210727022318 82 186 3.0 4.0 0.00 0.00 0.00 71 1013.9
20210727021821 82 171 2.0 4.0 0.00 0.00 0.00 71 1013.8
20210727021325 82 186 2.0 6.0 0.00 0.00 0.00 70 1013.7
20210727020821 82 196 3.0 6.0 0.00 0.00 0.00 70 1013.5
20210727020324 83 219 3.0 6.0 0.00 0.00 0.00 70 1013.4
20210727015812 83 219 4.0 6.0 0.00 0.00 0.00 69 1013.4
20210727015317 83 199 3.0 8.0 0.00 0.00 0.00 69 1013.4
20210727014822 83 207 4.0 8.0 0.00 0.00 0.00 68 1013.4
20210727014319 83 196 4.0 8.0 0.00 0.00 0.00 68 1013.3
20210727013825 84 200 4.0 8.0 0.00 0.00 0.00 68 1013.3
20210727013327 84 208 3.0 11.0 0.00 0.00 0.00 67 1013.3
20210727012825 84 186 6.0 11.0 0.00 0.00 0.00 67 1013.3
20210727012326 84 192 3.0 8.0 0.00 0.00 0.00 67 1013.3
20210727011811 84 190 4.0 8.0 0.00 0.00 0.00 66 1013.3
20210727011316 84 173 3.0 9.0 0.00 0.00 0.00 66 1013.3
20210727010817 85 243 5.0 12.0 0.00 0.00 0.00 66 1013.3
20210727010321 85 229 5.0 12.0 0.00 0.00 0.00 65 1013.3
20210727005826 85 193 6.0 12.0 0.00 0.00 0.00 65 1013.4
20210727005331 85 223 7.0 17.0 0.00 0.00 0.00 64 1013.4
20210727004828 85 234 6.0 14.0 0.00 0.00 0.00 64 1013.5
20210727004314 85 223 7.0 15.0 0.00 0.00 0.00 63 1013.6
20210727003818 86 185 5.0 11.0 0.00 0.00 0.00 63 1013.6
20210727003323 86 231 7.0 11.0 0.00 0.00 0.00 62 1013.7
20210727002822 86 227 6.0 10.0 0.00 0.00 0.00 63 1013.6
20210727002327 86 206 6.0 11.0 0.00 0.00 0.00 61 1013.6
20210727001831 86 226 8.0 14.0 0.00 0.00 0.00 62 1013.6
20210727001336 87 236 7.0 14.0 0.00 0.00 0.00 61 1013.5
20210727000813 87 234 6.0 10.0 0.00 0.00 0.00 60 1013.4
20210727000318 87 149 5.0 10.0 0.00 0.00 0.00 60 1013.4
20210726235821 87 196 5.0 12.0 0.00 0.00 0.00 60 1013.3
20210726235327 87 184 7.0 13.0 0.00 0.00 0.00 59 1013.3
20210726234823 87 234 8.0 17.0 0.00 0.00 0.00 60 1013.2
20210726234329 87 219 9.0 17.0 0.00 0.00 0.00 58 1013.1
20210726233833 87 227 7.0 12.0 0.00 0.00 0.00 58 1013.2
20210726233335 88 246 7.0 16.0 0.00 0.00 0.00 59 1013.2
20210726232814 88 214 8.0 16.0 0.00 0.00 0.00 56 1013.3
20210726232319 88 229 7.0 14.0 0.00 0.00 0.00 56 1013.3
20210726231825 88 232 9.0 16.0 0.00 0.00 0.00 55 1013.3
20210726231323 88 194 7.0 16.0 0.00 0.00 0.00 56 1013.4
20210726230825 88 208 9.0 16.0 0.00 0.00 0.00 55 1013.4
20210726230330 88 196 11.0 16.0 0.00 0.00 0.00 57 1013.4
20210726225813 88 261 8.0 17.0 0.00 0.00 0.00 57 1013.5